Regional Weather Roundup
Issued by NWS

Home | Current Version | Previous Version | Graphics & Text | Print | Product List | Glossary On
Versions: 1 2 3 4 5 6 7 8 9 10 11 12 13 14 15 16 17 18 19 20 21 22 23 24 25 26 27 28 29 30 31 32 33 34 35 36 37 38 39 40 41 42 43 44 45 46 47 48 49 50
000
ASUS43 KLSX 250607
RWRMO

WEATHER SUMMARY FOR MISSOURI
NATIONAL WEATHER SERVICE SPRINGFIELD MO
100 AM CDT FRI JUL 25 2014

NOTE: "FAIR" INDICATES FEW OR NO CLOUDS BELOW 12,000 FEET WITH NO
       SIGNIFICANT WEATHER AND/OR OBSTRUCTIONS TO VISIBILITY.
       CURRENT SKY AND/OR WEATHER CONDITIONS ARE NOT AVAILABLE FOR
       CHILLICOTHE AND FARMINGTON.

MOZ001>031-035>038-043-044-053-054-250700-
...NORTHERN AND WESTERN MISSOURI...

CITY           SKY/WX    TMP DP  RH WIND       PRES   REMARKS
KANSAS CTY INT CLEAR     71  59  65 S10       29.95F
6HR MIN TEMP:  69; 6HR MAX TEMP:  80;

KANSAS C DTWN  CLEAR     75  58  55 S9        29.95S
6HR MIN TEMP:  74; 6HR MAX TEMP:  82;

LEE`S SUMMIT   CLEAR     71  58  63 S12       29.98S
6HR MIN TEMP:  70; 6HR MAX TEMP:  80;

ST JOSEPH      CLEAR     71  61  70 S9        29.94F
6HR MIN TEMP:  70; 6HR MAX TEMP:  79;

CHILLICOTHE      N/A     69  58  67 SE7       29.98R
6HR MIN TEMP:  69; 6HR MAX TEMP:  79;

KIRKSVILLE     CLEAR     63  57  81 SE8       30.02R
6HR MIN TEMP:  63; 6HR MAX TEMP:  76;


$$
MOZ066>068-077>081-088>096-101>105-250700-
...SOUTHWEST MISSOURI...

CITY           SKY/WX    TMP DP  RH WIND       PRES   REMARKS
SPRINGFIELD    CLEAR     69  58  67 S7        30.04F
6HR MIN TEMP:  68; 6HR MAX TEMP:  82;

JOPLIN         CLEAR     72  61  68 SE8       30.03S
6HR MIN TEMP:  72; 6HR MAX TEMP:  86;


$$
MOZ032>034-039>042-045>050-055>058-069>072-250700-
...CENTRAL MISSOURI...

CITY           SKY/WX    TMP DP  RH WIND       PRES   REMARKS
COLUMBIA       CLEAR     63  56  78 SE7       30.02S
6HR MIN TEMP:  62; 6HR MAX TEMP:  80;

JEFFERSON CITY CLEAR     64  56  75 E5        30.02R
6HR MIN TEMP:  63; 6HR MAX TEMP:  80;

ROLLA          CLEAR     64  54  69 SE6       30.03F
6HR MIN TEMP:  64; 6HR MAX TEMP:  79;

SEDALIA        CLEAR     64  57  78 S6        30.00F
6HR MIN TEMP:  64; 6HR MAX TEMP:  81;

WHITEMAN AFB   CLEAR     67  47  48 S8        29.99S
OSAGE BEACH    CLEAR     64  54  68 CALM      30.02S

$$
MOZ051-052-059>065-250700-
...EAST CENTRAL MISSOURI...

CITY           SKY/WX    TMP DP  RH WIND       PRES   REMARKS
ST LOUIS INTL  PTCLDY    70  55  59 SE9       30.03F
6HR MIN TEMP:  67; 6HR MAX TEMP:  79;

SPIRIT OF STL  CLEAR     60  56  86 SE3       30.00F
6HR MIN TEMP:  59; 6HR MAX TEMP:  79;

ST CHARLES     CLEAR     59  55  87 CALM      30.02S
6HR MIN TEMP:  59; 6HR MAX TEMP:  78;


$$
MOZ072>076-082>087-097>100-106>115-250700-
...SOUTH CENTRAL AND SOUTHEAST MISSOURI...

CITY           SKY/WX    TMP DP  RH WIND       PRES   REMARKS
CAPE GIRARDEAU CLEAR     62  60  93 CALM      30.03F FOG
6HR MIN TEMP:  61; 6HR MAX TEMP:  78;

FARMINGTON     CLEAR     57  55  94 CALM      30.08R
6HR MIN TEMP:  57; 6HR MAX TEMP:  75;

POPLAR BLUFF   CLEAR     62  59  90 CALM      30.03F
6HR MIN TEMP:  62; 6HR MAX TEMP:  79;

WEST PLAINS    CLEAR     61  55  81 CALM      30.07F
6HR MIN TEMP:  60; 6HR MAX TEMP:  79;


$$



USA.gov is the U.S. government's official web portal to all federal, state and local government web resources and services.